N0TOA-13 Weather Reports


Display with metric or nautical units.
time (UTC)temp
F
wind
direction
speed
MPH
gust
MPH
rain 1hr
in
rain 24hr
in
rain mn
in
humidity
%
barometer
mb
20260505070005 47 137 1.0 2.0 0.00 0.00 0.00 92 989.2
20260505065004 47 75 0.0 2.0 0.00 0.00 0.00 96 1015.3
20260505064004 47 349 1.0 2.0 0.00 0.00 0.00 96 1015.4
20260505063005 47 137 1.0 3.0 0.00 0.00 0.00 92 989.4
20260505062004 47 260 0.0 2.0 0.00 0.00 0.00 96 1015.3
20260505061005 47 137 1.0 3.0 0.00 0.00 0.00 92 989.4
20260505060004 47 267 1.0 2.0 0.00 0.00 0.00 96 1015.5
20260505055004 46 137 1.0 2.0 0.00 0.00 0.00 92 989.5
20260505054005 46 137 1.0 1.0 0.00 0.00 0.00 92 989.3
20260505053004 46 318 0.0 1.0 0.00 0.00 0.00 96 1015.4
20260505052004 46 137 1.0 1.0 0.00 0.00 0.00 89 989.5
20260505051004 46 302 1.0 2.0 0.00 0.00 0.00 95 1015.7
20260505041004 48 137 1.0 1.0 0.00 0.00 0.00 54 989.8
20260505040005 50 137 1.0 1.0 0.00 0.00 0.00 54 989.6
20260505035004 52 330 2.0 8.0 0.00 0.00 0.00 75 1015.4
20260505034005 52 137 1.0 1.0 0.00 0.00 0.00 54 989.2
20260505033004 53 137 1.0 1.0 0.00 0.00 0.00 56 989.0
20260505032004 53 137 1.0 1.0 0.00 0.00 0.00 56 988.8
20260505031004 53 137 1.0 1.0 0.00 0.00 0.00 56 988.7
20260505030004 53 344 2.0 5.0 0.00 0.00 0.00 61 1014.4
20260505025004 53 357 1.0 3.0 0.00 0.00 0.00 60 1014.2
20260505024005 53 137 1.0 1.0 0.00 0.00 0.00 56 988.2
20260505023004 53 350 1.0 2.0 0.00 0.00 0.00 61 1014.1
20260505022004 53 137 1.0 1.0 0.00 0.00 0.00 50 988.2
20260505021004 53 66 1.0 3.0 0.00 0.00 0.00 61 1014.2
20260505020004 53 324 1.0 3.0 0.00 0.00 0.00 60 1014.1
20260505015004 54 359 1.0 5.0 0.00 0.00 0.00 57 1013.8
20260505014004 55 353 2.0 3.0 0.00 0.00 0.00 54 1013.6
20260505013004 55 137 1.0 1.0 0.00 0.00 0.00 30 987.8
20260505012004 55 137 1.0 1.0 0.00 0.00 0.00 30 987.8
20260505011004 56 137 1.0 1.0 0.00 0.00 0.00 30 987.8
20260505010004 56 340 3.0 8.0 0.00 0.00 0.00 49 1013.6
20260505005005 58 137 1.0 1.0 0.00 0.00 0.00 30 987.7
20260505003005 59 137 1.0 1.0 0.00 0.00 0.00 27 987.4
20260505002005 59 137 1.0 1.0 0.00 0.00 0.00 27 987.3
20260505001005 59 137 1.0 1.0 0.00 0.00 0.00 27 987.1
20260505000004 60 348 5.0 9.0 0.00 0.00 0.00 40 1012.9
20260504235005 61 137 1.0 1.0 0.00 0.00 0.00 27 986.8
20260504234005 62 137 1.0 1.0 0.00 0.00 0.00 27 986.8
20260504233005 62 137 1.0 1.0 0.00 0.00 0.00 21 986.6
20260504232005 62 137 1.0 1.0 0.00 0.00 0.00 21 986.6
20260504232003 62 346 3.0 8.0 0.00 0.00 0.00 35 1012.5
20260504231004 62 348 4.0 8.0 0.00 0.00 0.00 34 1012.3
20260504230005 63 137 1.0 1.0 0.00 0.00 0.00 21 986.3
20260504225005 63 137 1.0 1.0 0.00 0.00 0.00 21 986.1
20260504225003 63 335 3.0 8.0 0.00 0.00 0.00 34 1012.0
20260504224005 64 137 1.0 1.0 0.00 0.00 0.00 21 986.1
20260504224003 64 335 3.0 8.0 0.00 0.00 0.00 33 1012.0
20260504222004 65 1 3.0 6.0 0.00 0.00 0.00 32 1012.1
20260504221004 66 2 3.0 7.0 0.00 0.00 0.00 30 1012.0
20260504220004 67 345 3.0 6.0 0.00 0.00 0.00 27 1011.5
20260504215004 67 11 2.0 6.0 0.00 0.00 0.00 25 1011.6
20260504214005 68 137 1.0 1.0 0.00 0.00 0.00 21 985.8
20260504213004 69 359 2.0 9.0 0.00 0.00 0.00 26 1011.9
20260504212005 69 137 1.0 1.0 0.00 0.00 0.00 20 986.0
20260504212003 69 352 4.0 9.0 0.00 0.00 0.00 26 1011.9
20260504211005 69 137 1.0 1.0 0.00 0.00 0.00 20 986.1
20260504210005 69 137 1.0 1.0 0.00 0.00 0.00 20 986.1
20260504205005 68 137 1.0 1.0 0.00 0.00 0.00 20 986.2
20260504204004 69 137 1.0 1.0 0.00 0.00 0.00 20 986.3
20260504203004 69 352 3.0 8.0 0.00 0.00 0.00 26 1012.4
20260504202004 67 137 1.0 1.0 0.00 0.00 0.00 28 986.4
20260504201005 69 137 1.0 1.0 0.00 0.00 0.00 28 986.4
20260504200005 69 137 1.0 1.0 0.00 0.00 0.00 28 986.5
20260504195004 69 137 1.0 1.0 0.00 0.00 0.00 28 986.5
20260504194004 68 137 1.0 1.0 0.00 0.00 0.00 28 986.6
20260504193004 65 352 3.0 9.0 0.00 0.00 0.00 29 1012.5
20260504192004 65 137 1.0 1.0 0.00 0.00 0.00 17 986.6
20260504191004 64 350 4.0 10.0 0.00 0.00 0.00 29 1012.6
20260504190004 65 137 1.0 1.0 0.00 0.00 0.00 17 986.7
20260504185004 66 324 3.0 7.0 0.00 0.00 0.00 25 1012.5
20260504184004 67 137 1.0 1.0 0.00 0.00 0.00 17 986.6
20260504183004 68 137 1.0 1.0 0.00 0.00 0.00 18 986.5
20260504182004 68 137 1.0 1.0 0.00 0.00 0.00 18 986.4
20260504181004 68 137 1.0 1.0 0.00 0.00 0.00 18 986.6
20260504180004 69 137 1.0 1.0 0.00 0.00 0.00 18 986.6
20260504175004 69 351 3.0 8.0 0.00 0.00 0.00 24 1012.6
20260504174005 70 137 1.0 1.0 0.00 0.00 0.00 18 986.8
20260504174003 70 3 3.0 7.0 0.00 0.00 0.00 24 1012.7
20260504173005 69 137 1.0 1.0 0.00 0.00 0.00 20 986.9
20260504172004 68 356 2.0 7.0 0.00 0.00 0.00 25 1012.9
20260504171005 68 137 1.0 1.0 0.00 0.00 0.00 20 987.1
20260504171003 68 262 2.0 8.0 0.00 0.00 0.00 24 1013.0
20260504151005 62 137 1.0 1.0 0.00 0.00 0.00 25 987.8
20260504141005 54 137 1.0 1.0 0.00 0.00 0.00 34 988.0
20260504082004 48 328 0.0 1.0 0.00 0.00 0.00 51 1014.4
20260504081004 49 281 1.0 2.0 0.00 0.00 0.00 50 1014.5